User: anonymous   Login
Location: Unspecified
(0.0000°N, 0.0000°E)
Time: 13:28:36
(UTC+00:00)
Language:

YUBELEINY 2 - Orbit

View from above orbital plane
View from above orbital plane
View from above satellite
View from above satellite

Ground track
Ground track

The orbit data is extracted from the following two-line orbital elements,

1 38735U 12041C   24170.14392815  .00000043  00000-0  23845-3 0  9993
2 38735  82.4749 169.2874 0016508 213.0168 146.9881 12.42610298539380
Epoch (UTC): 18 June 2024 03:27:15
Eccentricity: 0.0016508
inclination: 82.4749°
perigee height: 1482 km
apogee height: 1508 km
right ascension of ascending node: 169.2874°
argument of perigee: 213.0168°
revolutions per day: 12.42610298
mean anomaly at epoch: 146.9881°
orbit number at epoch: 53938

The dashed part of the orbit path shows where the satellite is in the earth's shadow,  

DLR